Date String (YYYY-MM-DD hh:mm:ss) UTC,Instrument flags,absolute air pressure of the measurement (hPa),sample flow rate (lpm),inlet stack bypass flow (lpm),air temperature of the measurement (°C),ambient temperature measured by the external sensor (°C),aerosol sample conditioner tube jacket temperature (°C),OPC LED temperature (°C),internal box temperature (°C),relative humidity of the measurement (%),span deviation,mass concentration of particles derived from Lorenz-Mie calculation of OPC scattering (μg/m³),mass concentration of particles derived from Lorenz-Mie calculation of OPC scattering (μg/m³),mass concentration of particles derived from Lorenz-Mie calculation of OPC scattering (μg/m³)
DateTimeUTC,F1_M11,P_M11,Q1_M11,Q2_M11,T1_M11,T2_M11,T3_M11,T4_M11,T5_M11,U1_M11,ZSPAN_M11,X2_M11,X0_M11,X1_M11
2024-01-20 17:00:00,SystemResetWarning,0828.5,5.01,000.00,018.8,017.7,000.0,027.2,020.0,13.3,0002.4,0009.19,0014.02,0008.62
2024-01-20 17:01:00,SystemResetWarning,0828.5,5.00,000.00,018.8,017.7,000.0,027.2,020.1,13.4,0001.4,0009.21,0014.26,0008.65
2024-01-20 17:02:00,SystemResetWarning,0828.5,5.00,000.00,018.8,018.2,000.0,027.2,020.5,13.4,0000.5,0009.29,0014.31,0008.73
2024-01-20 17:03:00,SystemResetWarning,0828.6,4.99,000.00,019.0,019.0,000.0,027.2,020.8,13.3,0002.3,0009.36,0014.32,0008.80
2024-01-20 17:04:00,SystemResetWarning,0828.4,4.99,000.00,019.0,019.1,000.0,027.2,020.6,13.2,0002.9,0009.41,0014.14,0008.87
2024-01-20 17:05:00,SystemResetWarning,0828.4,4.99,000.00,019.0,018.9,000.0,027.2,020.4,13.2,0002.9,0009.47,0013.91,0008.93
2024-01-20 17:06:00,SystemResetWarning,0828.4,5.00,000.00,019.0,018.8,000.0,027.2,020.2,13.3,0002.8,0009.54,0014.25,0009.00
2024-01-20 17:07:00,SystemResetWarning,0828.4,5.00,000.00,019.0,018.7,000.0,027.2,020.2,13.3,0002.7,0009.58,0014.30,0009.05
2024-01-20 17:08:00,SystemResetWarning,0828.4,5.00,000.00,019.0,018.6,000.0,027.2,020.1,13.3,0002.6,0009.61,0014.64,0009.09
2024-01-20 17:09:00,SystemResetWarning,0828.4,5.00,000.00,018.9,018.5,000.0,027.2,020.1,13.3,0002.3,0009.65,0014.78,0009.12
2024-01-20 17:10:00,SystemResetWarning,0828.4,5.01,000.00,018.9,018.4,000.0,027.2,020.0,13.3,0002.2,0009.71,0014.93,0009.18
2024-01-20 17:11:00,SystemResetWarning,0828.4,5.01,000.00,018.9,018.3,000.0,027.2,020.0,13.3,0002.1,0009.77,0014.67,0009.22
2024-01-20 17:12:00,SystemResetWarning,0828.4,5.00,000.00,018.9,018.2,000.0,027.2,020.0,13.1,0001.6,0009.83,0014.41,0009.25
2024-01-20 17:13:00,SystemResetWarning,0828.4,4.99,000.00,018.9,018.2,000.0,027.2,020.0,13.1,0001.3,0009.83,0014.45,0009.26
2024-01-20 17:14:00,SystemResetWarning,0828.4,5.00,000.00,018.8,018.1,000.0,027.2,020.0,13.1,0000.2,0009.85,0014.90,0009.25
2024-01-20 17:15:00,SystemResetWarning,0828.4,4.99,000.00,018.8,018.1,000.0,027.2,020.0,13.2,0000.3,0009.84,0015.57,0009.25
2024-01-20 17:16:00,SystemResetWarning,0828.4,5.00,000.00,018.8,018.0,000.0,027.2,020.0,13.3,0000.3,0009.85,0016.41,0009.24
2024-01-20 17:17:00,SystemResetWarning,0828.4,5.00,000.00,018.8,018.0,000.0,027.2,020.0,13.3,0000.1,0009.86,0016.25,0009.22
2024-01-20 17:18:00,SystemResetWarning,0828.4,5.00,000.00,018.8,018.0,000.0,027.2,020.0,13.3,-000.0,0009.86,0016.43,0009.22
2024-01-20 17:19:00,SystemResetWarning,0828.3,5.00,000.00,018.8,018.0,000.0,027.2,020.0,13.3,0000.1,0009.91,0016.89,0009.25
2024-01-20 17:20:00,SystemResetWarning,0828.3,4.99,000.00,018.8,018.0,000.0,027.2,020.0,13.3,-000.0,0009.95,0017.11,0009.29
2024-01-20 17:21:00,SystemResetWarning,0828.3,5.00,000.00,018.8,018.0,000.0,027.2,020.0,13.4,0000.1,0009.95,0017.00,0009.30
2024-01-20 17:22:00,SystemResetWarning,0828.3,5.00,000.00,018.7,017.9,000.0,027.2,020.0,13.4,0000.2,0009.97,0017.04,0009.30
2024-01-20 17:23:00,SystemResetWarning,0828.2,5.00,000.00,018.8,017.9,000.0,027.2,020.0,13.4,0000.5,0009.95,0017.01,0009.29
2024-01-20 17:24:00,SystemResetWarning,0828.2,5.00,000.00,018.7,017.9,000.0,027.2,020.0,13.4,0001.2,0009.94,0016.97,0009.29
2024-01-20 17:25:00,SystemResetWarning,0828.2,5.00,000.00,018.7,017.9,000.0,027.2,020.0,13.3,0001.8,0009.92,0016.71,0009.29
2024-01-20 17:26:00,SystemResetWarning,0828.2,5.00,000.00,018.7,017.9,000.0,027.2,020.0,13.3,0001.9,0009.95,0016.40,0009.30
2024-01-20 17:27:00,SystemResetWarning,0828.1,5.00,000.00,018.7,017.9,000.0,027.2,020.0,13.4,0001.9,0009.95,0015.85,0009.31
2024-01-20 17:28:00,SystemResetWarning,0828.1,5.00,000.00,018.7,017.9,000.0,027.2,020.0,13.3,0002.4,0009.89,0015.85,0009.32
2024-01-20 17:29:00,SystemResetWarning,0828.2,5.00,000.00,018.7,017.9,000.0,027.2,020.0,13.3,0002.5,0009.89,0015.83,0009.32
2024-01-20 17:30:00,SystemResetWarning,0828.2,4.99,000.00,018.7,017.9,000.0,027.2,020.0,13.4,0002.3,0009.82,0015.21,0009.29
2024-01-20 17:31:00,SystemResetWarning,0828.2,5.00,000.00,018.7,017.9,000.0,027.2,020.0,13.5,0002.2,0009.77,0015.33,0009.27
2024-01-20 17:32:00,SystemResetWarning,0828.1,4.99,000.00,018.7,017.9,000.0,027.2,020.0,13.5,0002.2,0009.77,0015.69,0009.25
2024-01-20 17:33:00,SystemResetWarning,0828.1,5.00,000.00,018.7,017.9,000.0,027.2,020.0,13.5,0002.7,0009.86,0015.90,0009.30
2024-01-20 17:34:00,SystemResetWarning,0828.1,5.00,000.00,018.7,017.8,000.0,027.2,020.0,13.5,0002.8,0009.94,0016.05,0009.37
2024-01-20 17:35:00,SystemResetWarning,0828.1,4.99,000.00,018.7,017.8,000.0,027.2,020.0,13.5,0002.8,0010.01,0016.13,0009.42
2024-01-20 17:36:00,SystemResetWarning,0828.1,5.01,000.00,018.7,017.8,000.0,027.2,020.0,13.5,0002.7,0010.01,0016.26,0009.42
2024-01-20 17:37:00,SystemResetWarning,0828.1,5.01,000.00,018.7,017.8,000.0,027.2,020.0,13.5,0002.7,0010.00,0016.10,0009.41
2024-01-20 17:38:00,SystemResetWarning,0828.1,5.00,000.00,018.7,017.8,000.0,027.2,020.0,13.2,0002.8,0010.01,0016.46,0009.41
2024-01-20 17:39:00,SystemResetWarning,0828.1,4.99,000.00,018.7,017.8,000.0,027.2,020.0,13.1,0002.3,0010.02,0016.82,0009.40
2024-01-20 17:40:00,SystemResetWarning,0828.1,4.99,000.00,018.7,017.8,000.0,027.2,020.0,13.2,0002.2,0010.08,0016.89,0009.43
2024-01-20 17:41:00,SystemResetWarning,0828.1,5.02,000.00,018.7,017.8,000.0,027.2,020.0,13.4,0002.4,0010.17,0016.90,0009.47
2024-01-20 17:42:00,SystemResetWarning,0828.1,5.01,000.00,018.7,017.8,000.0,027.2,020.0,13.6,0002.6,0010.21,0016.44,0009.50
2024-01-20 17:43:00,SystemResetWarning,0828.0,5.01,000.00,018.7,017.9,000.0,027.2,020.3,13.6,0002.5,0010.22,0015.98,0009.53
2024-01-20 17:44:00,SystemResetWarning,0828.1,5.00,000.00,018.9,018.6,000.0,027.2,020.7,13.6,0002.2,0010.15,0015.86,0009.50
2024-01-20 17:45:00,SystemResetWarning,0828.1,4.99,000.00,019.0,019.2,000.0,027.2,020.9,13.7,0001.9,0010.16,0016.67,0009.50
2024-01-20 17:46:00,SystemResetWarning,0828.1,4.99,000.00,019.1,019.1,000.0,027.2,020.6,13.8,0001.5,0010.23,0017.35,0009.54
2024-01-20 17:47:00,SystemResetWarning,0828.0,5.01,000.00,019.0,018.9,000.0,027.2,020.3,13.7,0001.6,0010.34,0017.76,0009.63
2024-01-20 17:48:00,SystemResetWarning,0827.9,5.00,000.00,019.0,018.8,000.0,027.2,020.3,13.6,0001.9,0010.47,0018.79,0009.74
2024-01-20 17:49:00,SystemResetWarning,0827.8,5.01,000.00,019.0,018.7,000.0,027.2,020.2,13.5,0001.5,0010.58,0018.65,0009.85
2024-01-20 17:50:00,SystemResetWarning,0827.8,5.00,000.00,019.0,018.6,000.0,027.2,020.1,13.2,0001.8,0010.77,0018.76,0010.03
2024-01-20 17:51:00,SystemResetWarning,0827.8,4.99,000.00,018.9,018.5,000.0,027.2,020.1,13.3,0002.0,0010.92,0019.02,0010.16
2024-01-20 17:52:00,SystemResetWarning,0827.8,4.99,000.00,018.9,018.4,000.0,027.2,020.1,13.4,0001.7,0011.02,0019.16,0010.27
2024-01-20 17:53:00,SystemResetWarning,0827.7,4.99,000.00,018.9,018.4,000.0,027.2,020.0,13.4,0001.7,0011.16,0019.49,0010.40
2024-01-20 17:54:00,SystemResetWarning,0827.7,5.01,000.00,018.8,018.3,000.0,027.2,020.0,13.5,0001.9,0011.30,0019.70,0010.53
2024-01-20 17:55:00,SystemResetWarning,0827.7,5.01,000.00,018.8,018.2,000.0,027.2,020.0,13.4,0001.5,0011.44,0020.04,0010.62
2024-01-20 17:56:00,SystemResetWarning,0827.7,5.00,000.00,018.8,018.2,000.0,027.2,020.0,13.5,0001.6,0011.45,0019.21,0010.66
2024-01-20 17:57:00,SystemResetWarning,0827.7,4.99,000.00,018.8,018.1,000.0,027.2,020.0,13.5,0001.8,0011.40,0018.66,0010.66
2024-01-20 17:58:00,SystemResetWarning,0827.8,5.00,000.00,018.8,018.1,000.0,027.2,020.0,13.4,0001.6,0011.42,0018.15,0010.72
2024-01-20 17:59:00,SystemResetWarning,0827.7,5.00,000.00,018.8,018.1,000.0,027.2,020.0,13.4,0001.5,0011.43,0017.19,0010.76
